SBI2405 UIII-UNNT

Flight info

Callsign SBI2405
Flight time 2h 6m
Altitude 34000
Route BOGRA A815 TUTEK M97 LIBZI R497 LONKA A822 LAPAK B151 KESED B926 NATIR
Aircraft A321/M-SDE3FGHIRWY/LB1

Departure

Time 2026-05-01 13:07
Airport Irkutsk International Airport (UIII)

Arrival

Time 2026-05-01 15:14
Airport Novosibirsk Tolmachevo Airport (UNNT)
Time Latitude Longitude Altitude Speed Heading
2026-05-01 12:22 52.27154 104.36634 1651 ft 0 kts 199°
2026-05-01 12:53 52.27148 104.36630 1624 ft 4 kts 199°
2026-05-01 12:53 52.27123 104.36618 1651 ft 3 kts 193°
2026-05-01 12:54 52.27102 104.36643 1651 ft 5 kts 121°
2026-05-01 12:54 52.27055 104.36838 1651 ft 14 kts 110°
2026-05-01 12:54 52.27021 104.36991 1651 ft 14 kts 110°
2026-05-01 12:55 52.27001 104.37260 1651 ft 11 kts 81°
2026-05-01 12:55 52.26979 104.37364 1651 ft 10 kts 114°
2026-05-01 12:55 52.26942 104.37505 1651 ft 17 kts 113°
2026-05-01 12:56 52.26886 104.37718 1651 ft 24 kts 113°
2026-05-01 12:56 52.26812 104.37995 1651 ft 29 kts 114°
2026-05-01 12:56 52.26734 104.38290 1651 ft 28 kts 113°
2026-05-01 12:56 52.26660 104.38569 1651 ft 26 kts 114°
2026-05-01 12:57 52.26590 104.38831 1651 ft 24 kts 113°
2026-05-01 12:57 52.26462 104.39311 1651 ft 22 kts 115°
2026-05-01 12:57 52.26390 104.39579 1651 ft 29 kts 114°
2026-05-01 12:58 52.26304 104.39902 1651 ft 31 kts 113°
2026-05-01 12:58 52.26222 104.40216 1651 ft 29 kts 113°
2026-05-01 12:58 52.26142 104.40512 1651 ft 28 kts 113°
2026-05-01 12:59 52.26009 104.41010 1651 ft 17 kts 114°
2026-05-01 12:59 52.26001 104.41141 1651 ft 4 kts 67°
2026-05-01 12:59 52.26026 104.41183 1651 ft 1 kts 31°
2026-05-01 13:00 52.26099 104.41234 1651 ft 5 kts 23°
2026-05-01 13:00 52.26127 104.41253 1651 ft 3 kts 24°
2026-05-01 13:01 52.26216 104.41314 1652 ft 6 kts 11°
2026-05-01 13:01 52.26229 104.41279 1651 ft 4 kts 297°
2026-05-01 13:01 52.26244 104.41230 1651 ft 0 kts 294°
2026-05-01 13:07 52.50954 104.16558 11070 ft 293 kts 339°
2026-05-01 13:07 52.52919 104.15406 11399 ft 306 kts 339°
2026-05-01 13:07 52.54995 104.14186 11741 ft 319 kts 339°
2026-05-01 13:08 52.57117 104.12936 12083 ft 330 kts 339°
2026-05-01 13:08 52.59317 104.11637 12405 ft 342 kts 339°
2026-05-01 13:08 52.61588 104.10297 12749 ft 352 kts 339°
2026-05-01 13:08 52.63898 104.08935 13097 ft 361 kts 339°
2026-05-01 13:09 52.66290 104.07524 13449 ft 370 kts 339°
2026-05-01 13:09 52.68739 104.06074 13725 ft 378 kts 339°
2026-05-01 13:09 52.71229 104.04599 14140 ft 382 kts 339°
2026-05-01 13:09 52.73742 104.03109 14612 ft 384 kts 339°
2026-05-01 13:10 52.76266 104.01611 15091 ft 386 kts 339°
2026-05-01 13:10 52.78794 104.00112 15583 ft 387 kts 339°
2026-05-01 13:10 52.81330 103.98607 16072 ft 388 kts 339°
2026-05-01 13:10 52.83870 103.97094 16555 ft 389 kts 339°
2026-05-01 13:11 52.86420 103.95568 17040 ft 390 kts 339°
2026-05-01 13:11 52.88984 103.94033 17521 ft 392 kts 339°
2026-05-01 13:11 52.91554 103.92494 17997 ft 394 kts 339°
2026-05-01 13:11 52.94137 103.90945 18473 ft 395 kts 339°
2026-05-01 13:12 52.96732 103.89387 18869 ft 397 kts 339°
2026-05-01 13:12 52.99332 103.87828 19284 ft 398 kts 339°
2026-05-01 13:12 53.01944 103.86260 19701 ft 399 kts 339°
2026-05-01 13:12 53.04525 103.84709 20054 ft 400 kts 339°
2026-05-01 13:13 53.07136 103.83137 20137 ft 399 kts 340°
2026-05-01 13:13 53.09742 103.81564 20164 ft 398 kts 340°
2026-05-01 13:13 53.12345 103.79990 20163 ft 398 kts 340°
2026-05-01 13:13 53.14945 103.78396 20159 ft 398 kts 338°
2026-05-01 13:14 53.17468 103.76472 20160 ft 398 kts 335°
2026-05-01 13:14 53.19975 103.74508 20161 ft 398 kts 335°
2026-05-01 13:14 53.22482 103.72544 20161 ft 398 kts 335°
2026-05-01 13:14 53.24991 103.70580 20159 ft 398 kts 335°
2026-05-01 13:15 53.27502 103.68616 20163 ft 399 kts 335°
2026-05-01 13:15 53.30012 103.66649 20162 ft 399 kts 335°
2026-05-01 13:15 53.32526 103.64676 20162 ft 398 kts 335°
2026-05-01 13:15 53.35005 103.62727 20164 ft 398 kts 335°
2026-05-01 13:16 53.37512 103.60753 20164 ft 398 kts 335°
2026-05-01 13:16 53.40028 103.58769 20163 ft 398 kts 335°
2026-05-01 13:16 53.42535 103.56790 20163 ft 398 kts 335°
2026-05-01 13:17 53.49405 103.49104 20168 ft 403 kts 313°
2026-05-01 13:17 53.51010 103.45230 20162 ft 407 kts 302°
2026-05-01 13:18 53.52802 103.36101 20171 ft 416 kts 288°
2026-05-01 13:18 53.53447 103.31349 20172 ft 416 kts 288°
2026-05-01 13:18 53.54085 103.26601 20166 ft 416 kts 287°
2026-05-01 13:18 53.54721 103.21862 20165 ft 416 kts 288°
2026-05-01 13:19 53.55361 103.17111 20173 ft 416 kts 288°
2026-05-01 13:19 53.56001 103.12339 20321 ft 419 kts 287°
2026-05-01 13:19 53.57275 103.02742 21063 ft 422 kts 287°
2026-05-01 13:20 53.57901 102.97978 21455 ft 423 kts 288°
2026-05-01 13:20 53.58535 102.93137 21815 ft 424 kts 288°
2026-05-01 13:20 53.59177 102.88206 22166 ft 426 kts 288°
2026-05-01 13:21 53.60451 102.78492 22847 ft 430 kts 288°
2026-05-01 13:21 53.61095 102.73570 23193 ft 431 kts 288°
2026-05-01 13:21 53.61743 102.68623 23532 ft 433 kts 288°
2026-05-01 13:21 53.62386 102.63654 23862 ft 435 kts 288°
2026-05-01 13:22 53.63021 102.58667 24162 ft 436 kts 288°
2026-05-01 13:22 53.63652 102.53677 24510 ft 435 kts 288°
2026-05-01 13:22 53.64285 102.48689 24827 ft 435 kts 288°
2026-05-01 13:22 53.64922 102.43705 25186 ft 435 kts 288°
2026-05-01 13:23 53.65553 102.38717 25556 ft 434 kts 288°
2026-05-01 13:23 53.66177 102.33749 25955 ft 432 kts 288°
2026-05-01 13:23 53.66797 102.28794 26352 ft 431 kts 289°
2026-05-01 13:23 53.67416 102.23850 26729 ft 430 kts 289°
2026-05-01 13:24 53.68030 102.18917 27108 ft 429 kts 289°
2026-05-01 13:24 53.68637 102.13992 27485 ft 428 kts 289°
2026-05-01 13:24 53.69248 102.09082 27865 ft 427 kts 289°
2026-05-01 13:25 53.70462 101.99277 28546 ft 426 kts 289°
2026-05-01 13:25 53.71068 101.94391 28922 ft 425 kts 289°
2026-05-01 13:25 53.71663 101.89511 29298 ft 424 kts 289°
2026-05-01 13:25 53.72246 101.84627 29667 ft 423 kts 289°
2026-05-01 13:26 53.72824 101.79753 30018 ft 422 kts 289°
2026-05-01 13:26 53.73406 101.74904 30350 ft 421 kts 289°
2026-05-01 13:26 53.73979 101.70128 30647 ft 420 kts 289°
2026-05-01 13:26 53.74553 101.65301 30966 ft 419 kts 289°
2026-05-01 13:27 53.75122 101.60487 31289 ft 417 kts 289°
2026-05-01 13:27 53.75696 101.55690 31599 ft 416 kts 290°
2026-05-01 13:27 53.76833 101.46121 32180 ft 414 kts 290°
2026-05-01 13:28 53.77961 101.36600 32804 ft 411 kts 290°
2026-05-01 13:28 53.78520 101.31857 33116 ft 410 kts 290°
2026-05-01 13:29 53.79615 101.22424 33761 ft 407 kts 290°
2026-05-01 13:29 53.80691 101.13018 34160 ft 407 kts 290°
2026-05-01 13:31 53.83873 100.84848 34171 ft 407 kts 289°
2026-05-01 13:32 53.86510 100.61267 34175 ft 408 kts 289°
2026-05-01 13:33 53.89098 100.37643 34147 ft 408 kts 289°
2026-05-01 13:34 53.91116 100.18673 34160 ft 409 kts 289°
2026-05-01 13:35 53.92629 100.04442 34168 ft 409 kts 289°
2026-05-01 13:36 53.94120 99.90191 34170 ft 409 kts 289°
2026-05-01 13:36 53.95586 99.75998 34171 ft 409 kts 289°
2026-05-01 13:37 53.96555 99.66484 34168 ft 409 kts 288°
2026-05-01 13:37 53.97512 99.56953 34171 ft 409 kts 289°
2026-05-01 13:38 53.98951 99.42662 34147 ft 409 kts 288°
2026-05-01 13:39 53.99899 99.33137 34166 ft 409 kts 288°
2026-05-01 13:39 54.00844 99.23601 34175 ft 409 kts 288°
2026-05-01 13:40 54.01773 99.14063 34174 ft 409 kts 288°
2026-05-01 13:40 54.02689 99.04573 34181 ft 409 kts 288°
2026-05-01 13:41 54.03605 98.95010 34145 ft 409 kts 288°
2026-05-01 13:41 54.04656 98.85537 34164 ft 400 kts 296°
2026-05-01 13:42 54.07005 98.77196 34169 ft 388 kts 307°
2026-05-01 13:42 54.09693 98.69222 34175 ft 389 kts 306°
2026-05-01 13:43 54.12365 98.61195 34179 ft 389 kts 306°
2026-05-01 13:43 54.15038 98.53160 34175 ft 389 kts 306°
2026-05-01 13:44 54.17688 98.45182 34151 ft 389 kts 306°
2026-05-01 13:44 54.20353 98.37122 34156 ft 389 kts 306°
2026-05-01 13:45 54.23020 98.29067 34175 ft 390 kts 306°
2026-05-01 13:45 54.25687 98.20990 34177 ft 389 kts 306°
2026-05-01 13:46 54.28336 98.12906 34179 ft 390 kts 306°
2026-05-01 13:46 54.30975 98.04805 34180 ft 389 kts 306°
2026-05-01 13:47 54.33618 97.96697 34148 ft 390 kts 306°
2026-05-01 13:47 54.35815 97.89933 34156 ft 391 kts 306°
2026-05-01 13:48 54.38892 97.80477 34163 ft 391 kts 306°
2026-05-01 13:48 54.41119 97.73653 34168 ft 391 kts 306°
2026-05-01 13:49 54.43778 97.65515 34164 ft 391 kts 306°
2026-05-01 13:49 54.46397 97.57391 34165 ft 391 kts 305°
2026-05-01 13:50 54.49017 97.49195 34145 ft 392 kts 304°
2026-05-01 13:50 54.51655 97.40955 34156 ft 393 kts 304°
2026-05-01 13:51 54.54301 97.32707 34184 ft 393 kts 304°
2026-05-01 13:51 54.56924 97.24451 34181 ft 392 kts 304°
2026-05-01 13:52 54.59521 97.16245 34184 ft 392 kts 304°
2026-05-01 13:52 54.62146 97.07936 34180 ft 391 kts 304°
2026-05-01 13:53 54.64730 96.99743 34141 ft 391 kts 304°
2026-05-01 13:53 54.68628 96.87317 34142 ft 393 kts 303°
2026-05-01 13:54 54.71222 96.78998 34153 ft 394 kts 303°
2026-05-01 13:54 54.73818 96.70645 34158 ft 394 kts 303°
2026-05-01 13:55 54.75676 96.61606 34157 ft 406 kts 288°
2026-05-01 13:55 54.76812 96.52076 34160 ft 406 kts 289°
2026-05-01 13:56 54.77963 96.42481 34134 ft 407 kts 288°
2026-05-01 13:56 54.79109 96.32868 34143 ft 407 kts 288°
2026-05-01 13:57 54.80245 96.23225 34147 ft 408 kts 288°
2026-05-01 13:57 54.81371 96.13643 34153 ft 408 kts 288°
2026-05-01 13:58 54.82490 96.03994 34152 ft 408 kts 288°
2026-05-01 13:58 54.83603 95.94323 34128 ft 408 kts 288°
2026-05-01 13:59 54.84715 95.84656 34142 ft 409 kts 287°
2026-05-01 13:59 54.85812 95.74972 34147 ft 409 kts 287°
2026-05-01 14:00 54.86909 95.65301 34148 ft 409 kts 287°
2026-05-01 14:00 54.87995 95.55613 34153 ft 409 kts 287°
2026-05-01 14:01 54.89057 95.45989 34174 ft 408 kts 287°
2026-05-01 14:01 54.90112 95.36287 34140 ft 408 kts 287°
2026-05-01 14:02 54.91182 95.26586 34140 ft 408 kts 287°
2026-05-01 14:02 54.92239 95.16874 34146 ft 409 kts 287°
2026-05-01 14:03 54.93287 95.07143 34151 ft 409 kts 287°
2026-05-01 14:03 54.94327 94.97410 34159 ft 409 kts 287°
2026-05-01 14:04 54.95357 94.87659 34160 ft 409 kts 287°
2026-05-01 14:04 54.96382 94.77899 34161 ft 410 kts 287°
2026-05-01 14:05 54.97400 94.68141 34153 ft 410 kts 287°
2026-05-01 14:05 54.98410 94.58364 34157 ft 410 kts 286°
2026-05-01 14:06 54.99408 94.48642 34162 ft 410 kts 286°
2026-05-01 14:06 55.00404 94.38857 34164 ft 410 kts 286°
2026-05-01 14:07 55.01390 94.29064 34138 ft 410 kts 286°
2026-05-01 14:08 55.02851 94.14347 34143 ft 411 kts 285°
2026-05-01 14:08 55.03818 94.04522 34146 ft 412 kts 286°
2026-05-01 14:09 55.04786 93.94681 34145 ft 411 kts 286°
2026-05-01 14:09 55.05744 93.84833 34148 ft 412 kts 285°
2026-05-01 14:10 55.06690 93.74969 34129 ft 412 kts 285°
2026-05-01 14:10 55.07626 93.65085 34127 ft 413 kts 285°
2026-05-01 14:11 55.08555 93.55200 34137 ft 413 kts 285°
2026-05-01 14:11 55.09943 93.40342 34139 ft 414 kts 285°
2026-05-01 14:12 55.10857 93.30422 34140 ft 414 kts 285°
2026-05-01 14:12 55.11772 93.20497 34114 ft 414 kts 284°
2026-05-01 14:13 55.12529 93.12239 34120 ft 414 kts 284°
2026-05-01 14:13 55.13571 93.00663 34124 ft 415 kts 284°
2026-05-01 14:14 55.14449 92.90679 34129 ft 415 kts 284°
2026-05-01 14:14 55.15325 92.80675 34122 ft 416 kts 284°
2026-05-01 14:15 55.16194 92.70682 34112 ft 416 kts 284°
2026-05-01 14:15 55.17055 92.60697 34120 ft 416 kts 284°
2026-05-01 14:16 55.17908 92.50674 34123 ft 416 kts 284°
2026-05-01 14:16 55.18756 92.40725 34123 ft 416 kts 284°
2026-05-01 14:17 55.19606 92.30710 34127 ft 416 kts 283°
2026-05-01 14:17 55.20440 92.20696 34132 ft 416 kts 283°
2026-05-01 14:18 55.21272 92.10670 34111 ft 416 kts 283°
2026-05-01 14:18 55.21954 92.02336 34115 ft 416 kts 283°
2026-05-01 14:19 55.22896 91.90600 34115 ft 416 kts 283°
2026-05-01 14:19 55.23698 91.80565 34120 ft 416 kts 283°
2026-05-01 14:20 55.24884 91.65503 34122 ft 416 kts 283°
2026-05-01 14:21 55.25669 91.55460 34129 ft 416 kts 282°
2026-05-01 14:21 55.26440 91.45487 34133 ft 415 kts 282°
2026-05-01 14:22 55.27570 91.30438 34127 ft 414 kts 282°
2026-05-01 14:22 55.28317 91.20422 34125 ft 414 kts 282°
2026-05-01 14:23 55.29065 91.10407 34119 ft 413 kts 282°
2026-05-01 14:23 55.29806 91.00397 34110 ft 413 kts 281°
2026-05-01 14:24 55.30531 90.90388 34114 ft 413 kts 281°
2026-05-01 14:24 55.31235 90.80439 34116 ft 413 kts 281°
2026-05-01 14:25 55.31938 90.70430 34117 ft 413 kts 281°
2026-05-01 14:25 55.32644 90.60418 34117 ft 413 kts 281°
2026-05-01 14:26 55.33681 90.45389 34098 ft 413 kts 281°
2026-05-01 14:27 55.34355 90.35357 34102 ft 413 kts 280°
2026-05-01 14:27 55.35020 90.25327 34104 ft 413 kts 280°
2026-05-01 14:28 55.36010 90.10260 34100 ft 414 kts 280°
2026-05-01 14:28 55.36658 90.00254 34101 ft 413 kts 280°
2026-05-01 14:29 55.37300 89.90199 34082 ft 414 kts 280°
2026-05-01 14:30 55.38570 89.70078 34089 ft 414 kts 279°
2026-05-01 14:31 55.39490 89.55037 34096 ft 414 kts 279°
2026-05-01 14:31 55.40097 89.44892 34096 ft 414 kts 279°
2026-05-01 14:32 55.40693 89.34822 34098 ft 414 kts 279°
2026-05-01 14:32 55.41284 89.24798 34108 ft 414 kts 279°
2026-05-01 14:33 55.41862 89.14711 34106 ft 414 kts 279°
2026-05-01 14:33 55.42431 89.04615 34112 ft 414 kts 279°
2026-05-01 14:34 55.42990 88.94526 34116 ft 414 kts 279°
2026-05-01 14:34 55.43032 88.85992 34094 ft 419 kts 269°
2026-05-01 14:35 55.42543 88.75764 34098 ft 419 kts 269°
2026-05-01 14:35 55.42057 88.65588 34097 ft 420 kts 269°
2026-05-01 14:36 55.41562 88.55339 34100 ft 420 kts 269°
2026-05-01 14:36 55.41048 88.45083 34101 ft 420 kts 269°
2026-05-01 14:37 55.40527 88.34839 34096 ft 421 kts 269°
2026-05-01 14:37 55.39993 88.24570 34088 ft 421 kts 268°
2026-05-01 14:38 55.39450 88.14311 34088 ft 421 kts 268°
2026-05-01 14:38 55.38906 88.04050 34087 ft 421 kts 268°
2026-05-01 14:39 55.38356 87.93784 34088 ft 422 kts 268°
2026-05-01 14:39 55.37789 87.83514 34094 ft 422 kts 268°
2026-05-01 14:40 55.37219 87.73306 34077 ft 422 kts 267°
2026-05-01 14:40 55.36637 87.63006 34082 ft 423 kts 267°
2026-05-01 14:41 55.36051 87.52711 34080 ft 423 kts 267°
2026-05-01 14:41 55.35457 87.42415 34084 ft 423 kts 267°
2026-05-01 14:42 55.34852 87.32191 34074 ft 423 kts 267°
2026-05-01 14:42 55.34240 87.21901 34068 ft 423 kts 266°
2026-05-01 14:43 55.33617 87.11611 34060 ft 423 kts 266°
2026-05-01 14:43 55.32985 87.01334 34060 ft 424 kts 266°
2026-05-01 14:44 55.32346 86.91041 34058 ft 424 kts 266°
2026-05-01 14:44 55.31371 86.75595 34058 ft 424 kts 266°
2026-05-01 14:45 55.30375 86.60162 34042 ft 424 kts 265°
2026-05-01 14:46 55.29707 86.49929 34042 ft 425 kts 265°
2026-05-01 14:46 55.28678 86.34475 34044 ft 425 kts 265°
2026-05-01 14:47 55.27981 86.24172 34049 ft 426 kts 265°
2026-05-01 14:48 55.26920 86.08711 34053 ft 426 kts 265°
2026-05-01 14:48 55.26162 85.93188 34057 ft 426 kts 267°
2026-05-01 14:49 55.25233 85.72459 34052 ft 426 kts 266°
2026-05-01 14:50 55.24150 85.51815 34044 ft 426 kts 266°
2026-05-01 14:51 55.23347 85.36280 34032 ft 427 kts 265°
2026-05-01 14:52 55.22519 85.20743 34039 ft 427 kts 265°
2026-05-01 14:53 55.21665 85.05218 34030 ft 426 kts 265°
2026-05-01 14:53 55.21091 84.94873 34022 ft 427 kts 264°
2026-05-01 14:54 55.20502 84.84530 34013 ft 427 kts 264°
2026-05-01 14:54 55.19898 84.74182 33686 ft 427 kts 264°
2026-05-01 14:54 55.19433 84.69047 33377 ft 428 kts 257°
2026-05-01 14:55 55.18555 84.64054 32692 ft 430 kts 252°
2026-05-01 14:55 55.17574 84.59107 31991 ft 430 kts 252°
2026-05-01 14:55 55.16592 84.54153 31309 ft 431 kts 252°
2026-05-01 14:55 55.15620 84.49249 30645 ft 433 kts 251°
2026-05-01 14:56 55.14633 84.44266 29976 ft 434 kts 251°
2026-05-01 14:56 55.13641 84.39262 29202 ft 436 kts 251°
2026-05-01 14:56 55.12643 84.34233 28456 ft 440 kts 251°
2026-05-01 14:56 55.11634 84.29164 27734 ft 442 kts 250°
2026-05-01 14:57 55.10618 84.24066 27033 ft 445 kts 250°
2026-05-01 14:57 55.08568 84.13798 25682 ft 451 kts 250°
2026-05-01 14:57 55.07527 84.08619 25025 ft 453 kts 250°
2026-05-01 14:58 55.06479 84.03413 24383 ft 456 kts 250°
2026-05-01 14:58 55.05424 83.98180 23759 ft 458 kts 250°
2026-05-01 14:58 55.04368 83.92967 23060 ft 455 kts 250°
2026-05-01 14:58 55.03315 83.87798 22336 ft 450 kts 250°
2026-05-01 14:59 55.02270 83.82687 21620 ft 445 kts 250°
2026-05-01 14:59 55.01230 83.77637 20937 ft 439 kts 250°
2026-05-01 14:59 55.00200 83.72658 20276 ft 434 kts 250°
2026-05-01 14:59 54.99179 83.67742 19616 ft 429 kts 250°
2026-05-01 15:00 54.97163 83.58089 18351 ft 419 kts 250°
2026-05-01 15:00 54.96166 83.53339 17632 ft 415 kts 250°
2026-05-01 15:00 54.95180 83.48653 16925 ft 411 kts 250°
2026-05-01 15:01 54.94214 83.44061 16241 ft 407 kts 249°
2026-05-01 15:01 54.93243 83.39445 15577 ft 404 kts 249°
2026-05-01 15:01 54.92282 83.34883 14914 ft 400 kts 249°
2026-05-01 15:01 54.91325 83.30352 14267 ft 397 kts 249°
2026-05-01 15:02 54.90375 83.25869 13619 ft 394 kts 249°
2026-05-01 15:02 54.89748 83.22917 13137 ft 391 kts 249°
2026-05-01 15:02 54.88489 83.17020 12210 ft 387 kts 249°
2026-05-01 15:02 54.87559 83.12667 11530 ft 380 kts 249°
2026-05-01 15:03 54.86972 83.08336 10993 ft 362 kts 262°
2026-05-01 15:03 54.87011 83.03983 10507 ft 361 kts 276°
2026-05-01 15:03 54.87476 82.99772 10332 ft 348 kts 278°
2026-05-01 15:03 54.87925 82.95736 10208 ft 334 kts 278°
2026-05-01 15:04 54.88346 82.91851 10099 ft 321 kts 277°
2026-05-01 15:04 54.88745 82.88113 9985 ft 309 kts 277°
2026-05-01 15:04 54.89127 82.84514 9859 ft 297 kts 277°
2026-05-01 15:04 54.89476 82.81028 9598 ft 289 kts 272°
2026-05-01 15:05 54.89476 82.77595 9012 ft 281 kts 264°
2026-05-01 15:05 54.89392 82.74210 8361 ft 284 kts 264°
2026-05-01 15:05 54.89296 82.70777 7715 ft 292 kts 264°
2026-05-01 15:05 54.89190 82.67206 7085 ft 300 kts 263°
2026-05-01 15:06 54.89081 82.63548 6464 ft 307 kts 263°
2026-05-01 15:06 54.88974 82.59853 6081 ft 303 kts 263°
2026-05-01 15:06 54.88875 82.56267 5992 ft 289 kts 263°
2026-05-01 15:06 54.88780 82.52854 5897 ft 279 kts 263°
2026-05-01 15:07 54.88681 82.49494 5698 ft 278 kts 263°
2026-05-01 15:07 54.88579 82.46152 5343 ft 276 kts 263°
2026-05-01 15:07 54.88479 82.42825 4974 ft 276 kts 263°
2026-05-01 15:07 54.88383 82.39495 4597 ft 277 kts 264°
2026-05-01 15:08 54.88713 82.36193 4210 ft 283 kts 291°
2026-05-01 15:08 54.89908 82.33453 3746 ft 291 kts 320°
2026-05-01 15:08 54.91751 82.32027 3258 ft 286 kts 352°
2026-05-01 15:08 54.93619 82.31552 3184 ft 259 kts 353°
2026-05-01 15:09 54.95349 82.31095 3147 ft 246 kts 356°
2026-05-01 15:09 54.96960 82.31522 3009 ft 228 kts 32°
2026-05-01 15:09 54.98096 82.33256 2909 ft 212 kts 64°
2026-05-01 15:09 54.98550 82.35579 2735 ft 200 kts 87°
2026-05-01 15:10 54.98755 82.37955 2593 ft 198 kts 88°
2026-05-01 15:10 54.99182 82.42682 2307 ft 197 kts 87°
2026-05-01 15:10 54.99400 82.45028 2215 ft 195 kts 87°
2026-05-01 15:11 54.99612 82.47303 2031 ft 188 kts 87°
2026-05-01 15:11 55.00000 82.51445 1639 ft 154 kts 88°
2026-05-01 15:11 55.00165 82.53247 1417 ft 149 kts 88°
2026-05-01 15:12 55.00326 82.55024 1187 ft 148 kts 84°
2026-05-01 15:12 55.00660 82.58575 829 ft 149 kts 84°
2026-05-01 15:12 55.00819 82.60349 643 ft 148 kts 83°
2026-05-01 15:13 55.01244 82.65074 373 ft 72 kts 81°
2026-05-01 15:14 55.01360 82.66362 374 ft 24 kts 81°
2026-05-01 15:14 55.01369 82.66544 375 ft 9 kts 107°
2026-05-01 15:14 55.01277 82.66617 373 ft 4 kts 172°
2026-05-01 15:15 55.01263 82.66621 373 ft 0 kts 172°
2026-05-01 15:15 55.01261 82.66621 373 ft 1 kts 172°
2026-05-01 15:16 55.01242 82.66626 373 ft 7 kts 172°
2026-05-01 15:16 55.01112 82.66656 373 ft 8 kts 178°
2026-05-01 15:17 55.01061 82.66549 373 ft 5 kts 246°
2026-05-01 15:18 55.00999 82.66462 373 ft 4 kts 174°
2026-05-01 15:18 55.00976 82.66468 373 ft 3 kts 171°
2026-05-01 15:19 55.00958 82.66474 373 ft 0 kts 171°